User: anonymous   Login
Location: Unspecified
(0.0000°N, 0.0000°E)
Time: 07:02:44
(UTC+00:00)
Language:

POPSAT HIP 1 - Orbit

View from above orbital plane
View from above orbital plane
View from above satellite
View from above satellite

Ground track
Ground track

The orbit data is extracted from the following two-line orbital elements,

1 40028U 14033U   18048.82765811  .00000255  00000-0  33459-4 0  9994
2 40028  97.9120 324.8056 0012725 212.0225 148.0212 14.88496723199013
Epoch (UTC): 17 February 2018 19:51:49
Eccentricity: 0.0012725
inclination: 97.9120°
perigee height: 594 km
apogee height: 611 km
right ascension of ascending node: 324.8056°
argument of perigee: 212.0225°
revolutions per day: 14.88496723
mean anomaly at epoch: 148.0212°
orbit number at epoch: 19901

The dashed part of the orbit path shows where the satellite is in the earth's shadow,  

DLR